175  
ASUS42 KCAE 231810  
RWRCAE  
REGIONAL WEATHER ROUNDUP  
NATIONAL WEATHER SERVICE COLUMBIA SC  
100 PM EST SAT JAN 23 2021  
 
NOTE: "FAIR" INDICATES FEW OR NO CLOUDS BELOW 12,000 FEET WITH NO  
SIGNIFICANT WEATHER AND/OR S TO VISIBILITY
.  
 
NOT ALL STATIONS ARE QUALITY CONTROLLED BY THE NATIONAL  
WEATHER SERVICE. USE DATA WITH CAUTION...ESPECIALLY  
DEWPOINT OBSERVATIONS.  
 
SCZ001>056-GAZ040-063>065-077-231900-   
..UPSTATE SOUTH CAROLINA
 
 
 
CITY SKY/WX TMP DP RH WIND PRES REMARKS
 
ANDERSON SUNNY 56 23 27 VRB5 30.17F  
6HR MIN TEMP: 28; 6HR MAX TEMP: 56;  
 
LIBERTY CLEAR 55 16 22 SE9 30.16F  
6HR MIN TEMP: 25; 6HR MAX TEMP: 55;  
 
SPARTANBURG SUNNY 50 10 20 N6 30.19F  
CLEMSON SUNNY 53 21 28 E5 30.18F  
6HR MIN TEMP: 30; 6HR MAX TEMP: 53;  
 
GREENVILLE SUNNY 54 9 16 N16 30.19F  
6HR MIN TEMP: 40; 6HR MAX TEMP: 54;  
 
GREENWOOD SUNNY 54 16 22 NE8 30.20F  
6HR MIN TEMP: 27; 6HR MAX TEMP: 54;  
 
GREER SUNNY 52 6 15 N9 30.18F  
6HR MIN TEMP: 39; 6HR MAX TEMP: 52;  
 
ROCK HILL SUNNY 51 14 22 N8 30.21F  
6HR MIN TEMP: 29; 6HR MAX TEMP: 52;  
 
LAURENS CLEAR 54 21 28 NE5 30.19F  
 
   
..CENTRAL SOUTH CAROLINA
 
 
 
CITY SKY/WX TMP DP RH WIND PRES REMARKS
 
COLUMBIA APT PTSUNNY 55 21 26 N7 30.19F  
6HR MIN TEMP: 30; 6HR MAX TEMP: 55;  
 
COLUMBIA OWENS SUNNY 55 21 26 NE7 30.20F  
6HR MIN TEMP: 32; 6HR MAX TEMP: 55;  
 
ORANGEBURG SUNNY 55 26 32 N13 30.19F  
6HR MIN TEMP: 35; 6HR MAX TEMP: 55;  
 
NEWBERRY CLEAR 52 19 28 NE7 30.22F  
AIKEN FAIR 55 26 32 NE13 30.19F  
6HR MIN TEMP: 34; 6HR MAX TEMP: 55;  
 
BARNWELL FAIR 55 28 35 NE9 30.19F  
MANNING FAIR 54 23 30 N9 30.20F  
CAMDEN FAIR 52 16 24 N9 30.20F  
LANCASTER CLEAR 54 12 19 NE10 30.19F  
WINNSBORO CLEAR 52 23 32 NW5 30.19F  
 
   
..EASTERN AND COASTAL SOUTH CAROLINA
 
 
 
CITY SKY/WX TMP DP RH WIND PRES REMARKS
 
MYRTLE BEACH SUNNY 54 19 25 N18 30.17F  
6HR MIN TEMP: 37; 6HR MAX TEMP: 54;  
 
N MYRTLE BCH SUNNY 54 20 26 N12G20 30.16F  
6HR MIN TEMP: 38; 6HR MAX TEMP: 54;  
 
CONWAY FAIR 52 21 30 NE12 30.18F  
MARION FAIR 52 18 25 N10G16 30.19F  
HARTSVILLE FAIR 52 16 24 N8G14 30.20F  
FLORENCE SUNNY 54 15 21 N12 30.19F  
6HR MIN TEMP: 37; 6HR MAX TEMP: 54;  
 
DARLINGTON SUNNY 52 17 25 N15 30.20F  
6HR MIN TEMP: 35; 6HR MAX TEMP: 52;  
 
CHARLESTON APT MOSUNNY 57 28 33 N12 30.17F  
6HR MIN TEMP: 37; 6HR MAX TEMP: 57;  
 
MOUNT PLEASANT FAIR 55 27 33 VRB5G12 30.17F  
WALTERBORO CLEAR 55 30 38 N9 30.19F  
BEAUFORT SUNNY 59 38 45 NE7 30.17F  
6HR MIN TEMP: 38; 6HR MAX TEMP: 59;  
 
HILTON HEAD SUNNY 57 39 51 E12 30.18F  
 
   
..EASTERN GEORGIA
 
 
 
CITY SKY/WX TMP DP RH WIND PRES REMARKS
 
AUGUSTA BUSH F SUNNY 59 28 30 NE8 30.18F  
6HR MIN TEMP: 31; 6HR MAX TEMP: 60;  
 
AUGUSTA DANIEL MOSUNNY 57 26 30 NE9 30.19F  
6HR MIN TEMP: 38; 6HR MAX TEMP: 58;  
 
THOMSON SUNNY 54 29 38 E9 30.18F  
6HR MIN TEMP: 29; 6HR MAX TEMP: 55;  
 
WASHINGTON FAIR 54 27 35 E5 30.18F  
CLAXTON FAIR 61 40 45 CALM 30.17F  
6HR MIN TEMP: 41; 6HR MAX TEMP: 61;  
 
SYLVANIA CLEAR 58 38 47 E8 30.19F  
6HR MIN TEMP: 35; 6HR MAX TEMP: 58;  
 
STATESBORO SUNNY 57 37 48 E7 30.17F  
6HR MIN TEMP: 36; 6HR MAX TEMP: 57;  
 
SAVANNAH MOSUNNY 61 38 42 VRB6 30.16F  
6HR MIN TEMP: 43; 6HR MAX TEMP: 62;  
 
   
..SOUTHERN NORTH CAROLINA
 
 
 
CITY SKY/WX TMP DP RH WIND PRES REMARKS
 
CHARLOTTE MOSUNNY 49 10 20 NE12 30.22F  
6HR MIN TEMP: 28; 6HR MAX TEMP: 51;  
 
MONROE SUNNY 50 12 21 N12 30.20F  
6HR MIN TEMP: 33; 6HR MAX TEMP: 50;  
 
WADESBORO CLEAR 49 7 18 N14G20 30.22F  
6HR MIN TEMP: 26; 6HR MAX TEMP: 50;  
 
ROCKINGHAM CLEAR 49 11 21 NW7G16 30.21F  
6HR MIN TEMP: 32; 6HR MAX TEMP: 49;  
 
RUTHERFORDTON SUNNY 50 9 18 N7 30.21F  
ASHEVILLE SUNNY 44 5 20 N13G20 30.19F  
6HR MIN TEMP: 30; 6HR MAX TEMP: 44;  
 

 
 
 
CLICK HERE TO GO TO PREVIOUS BULLETINS.

The Nexlab SC Page
The Nexlab GA Page Main Text Page